Bay Point Middle School FL US WEATHERSTEM current weather conditions

sailwx.info

Wind from 246 at 6 knots gusting 12

Air temperature 25.8° C
Dewpoint 23.4° C

Last reported at 2020-Apr-09 13:30 UTC.
Time now 2020-Apr-09 14:20 UTC

Location: N 27°43' W 082°40'.
View on Google Maps.

See reports from other nearby stations

  
Tides and Currents Weather Stations Pressure Air Temp Water Temp Dewpoint Dewpoint Depression Visibility Wind Speed Wind Dir Waves Ship Positions
date/time (UTC)wind fromknots sea level pressurealtimeterstation pressurevisibilityair tempwater tempwave heightnotes
2020-Apr-09 13:30 246 6 gusting 12 25.8
2020-Apr-09 13:20 250 3 gusting 13 25.5
2020-Apr-09 13:10 290 6 gusting 10 25.3
2020-Apr-09 13:00 25.2
2020-Apr-09 12:50 25.0
2020-Apr-09 12:30 248 6 gusting 10 24.7
2020-Apr-09 12:20 246 4 gusting 9 24.6
2020-Apr-09 12:10 246 3 gusting 9 24.5
2020-Apr-09 12:00 270 3 gusting 10 24.3
2020-Apr-09 11:40 252 3 gusting 8 24.2
2020-Apr-09 11:30 250 2 gusting 8 24.1
2020-Apr-09 11:20 271 2 gusting 9 24.1
2020-Apr-09 11:00 269 3 gusting 10 24.0
2020-Apr-09 10:50 292 3 gusting 10 23.9
2020-Apr-09 10:30 273 5 gusting 7 24.0
2020-Apr-09 10:10 236 4 gusting 7 24.0
2020-Apr-09 10:00 255 1 gusting 8 24.0
2020-Apr-09 09:50 269 6 gusting 6 24.1
2020-Apr-09 09:30 258 6 gusting 9 24.1
2020-Apr-09 09:20 250 4 gusting 9 24.1
2020-Apr-09 09:10 233 6 gusting 9 24.1
2020-Apr-09 09:00 232 6 gusting 11 24.1
2020-Apr-09 08:50 233 8 gusting 9 24.1
2020-Apr-09 08:30 228 7 gusting 9 24.0
2020-Apr-09 08:20 238 9 gusting 11 24.1
2020-Apr-09 08:10 220 7 gusting 8 24.1
2020-Apr-09 08:00 227 8 gusting 11 24.1
2020-Apr-09 07:50 223 8 gusting 13 24.1
2020-Apr-09 07:20 236 6 gusting 13 24.1
2020-Apr-09 07:10 230 6 gusting 13 24.1
2020-Apr-09 07:00 233 5 gusting 12 24.1
2020-Apr-09 06:50 211 7 gusting 13 24.1
2020-Apr-09 06:30 225 6 gusting 12 24.1
2020-Apr-09 06:20 232 4 gusting 9 24.1
2020-Apr-09 06:10 225 5 gusting 10 24.1
2020-Apr-09 06:00 222 2 gusting 10 24.1
2020-Apr-09 05:50 228 3 gusting 12 24.2
2020-Apr-09 05:30 238 4 gusting 11 24.2
2020-Apr-09 05:10 241 7 gusting 10 24.1
2020-Apr-09 05:00 225 6 gusting 7 24.2
2020-Apr-09 04:50 237 3 gusting 6 24.2
2020-Apr-09 04:30 245 6 gusting 8 24.2
2020-Apr-09 04:20 238 3 gusting 7 24.2
2020-Apr-09 04:10 226 4 gusting 8 24.2
2020-Apr-09 04:00 257 4 gusting 8 24.2
2020-Apr-09 03:50 251 6 gusting 7 24.2
2020-Apr-09 03:30 223 4 gusting 10 24.3
2020-Apr-09 03:20 237 6 gusting 10 24.3
2020-Apr-09 03:10 231 6 gusting 10 24.2
2020-Apr-09 03:00 237 5 gusting 11 24.2
2020-Apr-09 02:50 230 6 gusting 12 24.2
2020-Apr-09 02:30 246 7 gusting 7 24.2
2020-Apr-09 02:20 226 4 gusting 8 24.2
2020-Apr-09 02:10 238 2 gusting 8 24.3
2020-Apr-09 02:00 273 3 gusting 10 24.2
2020-Apr-09 01:50 217 5 gusting 7 24.2
2020-Apr-09 01:30 240 3 gusting 9 24.2
2020-Apr-09 01:20 238 2 gusting 8 24.2
2020-Apr-09 01:10 238 4 gusting 6 24.2
2020-Apr-09 01:00 291 3 gusting 6 24.3
2020-Apr-09 00:50 246 6 gusting 9 24.3
2020-Apr-09 00:30 275 2 gusting 7 24.3
2020-Apr-09 00:20 261 6 gusting 7 24.4
2020-Apr-09 00:10 269 1 gusting 8 24.5
2020-Apr-09 00:00 254 4 gusting 9 24.6
2020-Apr-08 23:50 246 4 gusting 8 24.8
2020-Apr-08 23:30 291 6 gusting 8 25.1
2020-Apr-08 23:20 248 4 gusting 9 25.3
2020-Apr-08 23:10 287 6 gusting 9 25.4
2020-Apr-08 23:00 283 6 gusting 9 25.6
2020-Apr-08 22:50 301 2 gusting 9 25.7
2020-Apr-08 22:30 225 5 gusting 10 25.9
2020-Apr-08 22:20 266 8 gusting 9 26.6
2020-Apr-08 22:10 263 1 gusting 11 26.7
2020-Apr-08 22:00 300 1 gusting 7 26.6
2020-Apr-08 21:50 251 4 gusting 9 26.6
2020-Apr-08 21:30 26.6
2020-Apr-08 21:20 26.6
2020-Apr-08 21:10 26.7
2020-Apr-08 21:00 318 5 gusting 12 26.7
2020-Apr-08 20:50 257 9 gusting 12 26.7
2020-Apr-08 20:30 309 8 gusting 12 26.9
2020-Apr-08 20:20 233 5 gusting 12 27.1
2020-Apr-08 20:10 281 3 gusting 12 27.1
2020-Apr-08 20:00 250 4 gusting 12 27.5
2020-Apr-08 19:50 27.7
2020-Apr-08 19:30 303 6 gusting 7 27.5
2020-Apr-08 19:20 27.4
2020-Apr-08 19:10 27.1
2020-Apr-08 19:00 27.1
2020-Apr-08 18:50 27.2
2020-Apr-08 18:40 27.2
2020-Apr-08 18:30 27.2
2020-Apr-08 18:20 27.1
2020-Apr-08 18:10 27.4
2020-Apr-08 18:00 27.3
2020-Apr-08 17:50 27.3
2020-Apr-08 17:40 26.9
2020-Apr-08 17:30 26.9
2020-Apr-08 17:20 26.6
2020-Apr-08 17:00 26.9
2020-Apr-08 16:50 26.4
2020-Apr-08 16:40 26.4
2020-Apr-08 16:30 26.3
2020-Apr-08 16:20 26.2
2020-Apr-08 16:10 26.4
2020-Apr-08 16:00 26.4
2020-Apr-08 15:50 25.9
2020-Apr-08 15:40 25.9
2020-Apr-08 15:30 25.9
2020-Apr-08 15:20 25.7
2020-Apr-08 15:10 25.5
2020-Apr-08 15:00 25.3
2020-Apr-08 14:50 25.4
2020-Apr-08 14:40 24.7
2020-Apr-08 14:30 24.8
2020-Apr-08 14:20 24.6
2020-Apr-08 14:10 24.3
2020-Apr-08 14:00 24.2
2020-Apr-08 13:50 24.1
2020-Apr-08 13:40 23.9
2020-Apr-08 13:30 23.8
2020-Apr-08 13:20 23.6
2020-Apr-08 13:10 23.4
2020-Apr-08 13:00 23.2
2020-Apr-08 12:50 22.9
2020-Apr-08 12:40 22.3
2020-Apr-08 12:30 268 0 gusting 5 22.1
2020-Apr-08 12:20 268 1 gusting 5 21.7
2020-Apr-08 12:10 304 1 gusting 3 21.4
2020-Apr-08 12:00 305 1 gusting 4 21.2
2020-Apr-08 11:50 312 2 gusting 3 20.8
2020-Apr-08 11:30 322 0 gusting 0 20.2
2020-Apr-08 11:20 20.2
2020-Apr-08 11:10 20.3
2020-Apr-08 11:00 20.3
2020-Apr-08 10:50 20.2
2020-Apr-08 10:40 20.3
2020-Apr-08 10:30 20.3
2020-Apr-08 10:20 20.3
2020-Apr-08 10:10 20.4
2020-Apr-08 10:00 20.4
2020-Apr-08 09:50 20.6
2020-Apr-08 09:40 322 0 gusting 1 20.6
2020-Apr-08 09:30 20.7
2020-Apr-08 09:20 20.7
2020-Apr-08 09:10 322 1 gusting 1 20.8
2020-Apr-08 09:00 20.8
2020-Apr-08 08:50 21.1
2020-Apr-08 08:40 322 0 gusting 2 21.2
2020-Apr-08 08:30 21.3
2020-Apr-08 08:20 322 0 gusting 2 21.3
2020-Apr-08 08:10 322 0 gusting 2 21.3
2020-Apr-08 08:00 322 1 gusting 1 21.4
2020-Apr-08 07:50 21.3
2020-Apr-08 07:40 21.4
2020-Apr-08 07:30 21.3
2020-Apr-08 07:20 21.3
2020-Apr-08 07:10 21.4
2020-Apr-08 07:00 21.4
2020-Apr-08 06:40 21.5
2020-Apr-08 06:30 21.5
2020-Apr-08 06:20 21.5
2020-Apr-08 06:10 21.6
2020-Apr-08 06:00 21.6
2020-Apr-08 05:40 21.6
2020-Apr-08 05:30 21.7
2020-Apr-08 05:20 322 1 gusting 2 21.7
2020-Apr-08 05:10 322 1 gusting 1 21.7
2020-Apr-08 05:00 21.9
2020-Apr-08 04:40 22.1
2020-Apr-08 04:30 22.2
2020-Apr-08 04:20 322 0 gusting 2 22.3
2020-Apr-08 04:10 322 1 gusting 2 22.4
2020-Apr-08 04:00 322 1 gusting 2 22.4
2020-Apr-08 03:40 322 2 gusting 3 22.5
2020-Apr-08 03:30 322 0 gusting 3 22.6
2020-Apr-08 03:20 322 2 gusting 3 22.7
2020-Apr-08 03:10 322 1 gusting 3 22.7
2020-Apr-08 03:00 322 2 gusting 3 22.8
2020-Apr-08 02:50 22.9
2020-Apr-08 02:40 22.9
2020-Apr-08 02:30 23.0
2020-Apr-08 02:20 23.1
2020-Apr-08 02:10 23.1
2020-Apr-08 02:00 321 4 gusting 6 23.2
2020-Apr-08 01:50 318 2 gusting 4 23.3
2020-Apr-08 01:40 317 3 gusting 5 23.3
2020-Apr-08 01:30 317 2 gusting 6 23.4
2020-Apr-08 01:20 317 3 gusting 4 23.4
2020-Apr-08 01:10 315 2 gusting 6 23.5
2020-Apr-08 01:00 310 4 gusting 8 23.6
2020-Apr-08 00:50 323 4 gusting 8 23.7
2020-Apr-08 00:40 317 7 gusting 9 23.8
2020-Apr-08 00:30 312 5 gusting 8 23.8
2020-Apr-08 00:20 302 6 gusting 9 23.9
2020-Apr-08 00:10 293 3 gusting 9 24.1
2020-Apr-08 00:00 292 2 gusting 9 24.2
2020-Apr-07 23:50 264 6 gusting 8 24.3
2020-Apr-07 23:40 297 4 gusting 11 24.5
2020-Apr-07 23:30 268 1 gusting 10 24.7
2020-Apr-07 23:20 302 6 gusting 11 24.8
2020-Apr-07 23:10 275 3 gusting 10 25.1
2020-Apr-07 23:00 285 7 gusting 13 25.2
2020-Apr-07 22:50 334 3 gusting 12 25.4
2020-Apr-07 22:40 303 4 gusting 11 25.6
2020-Apr-07 22:30 309 8 gusting 11 25.7
2020-Apr-07 22:20 300 6 gusting 13 25.9
2020-Apr-07 22:10 288 6 gusting 12 26.0
2020-Apr-07 22:00 314 6 gusting 12 26.1
2020-Apr-07 21:50 281 6 gusting 11 26.3
2020-Apr-07 21:40 259 6 gusting 11 26.3
2020-Apr-07 21:30 283 8 gusting 11 26.3
2020-Apr-07 21:20 245 3 gusting 12 26.4
2020-Apr-07 21:10 288 6 gusting 10 26.5
2020-Apr-07 21:00 263 7 gusting 11 26.6
2020-Apr-07 20:50 232 5 gusting 12 26.3
2020-Apr-07 20:40 288 4 gusting 9 27.0
2020-Apr-07 20:30 304 4 gusting 10 27.1
2020-Apr-07 20:20 242 7 gusting 13 27.1
2020-Apr-07 20:10 250 8 gusting 11 27.2
2020-Apr-07 20:00 309 2 gusting 10 27.1
2020-Apr-07 19:50 265 6 gusting 11 27.2
2020-Apr-07 19:40 310 8 gusting 11 27.4
2020-Apr-07 19:30 302 9 gusting 12 27.7
2020-Apr-07 19:20 269 6 gusting 12 27.8
2020-Apr-07 19:10 213 7 gusting 10 27.9
2020-Apr-07 19:00 204 7 gusting 10 28.2
2020-Apr-07 18:40 212 6 gusting 9 28.5
2020-Apr-07 18:30 198 8 gusting 9 28.6
2020-Apr-07 18:20 223 4 gusting 7 28.9
2020-Apr-07 18:10 313 3 gusting 8 29.1
2020-Apr-07 18:00 281 6 gusting 9 29.6
2020-Apr-07 17:50 183 2 gusting 6 29.1
2020-Apr-07 17:40 207 3 gusting 8 28.9
2020-Apr-07 17:30 173 1 gusting 7 28.5
2020-Apr-07 17:20 179 3 gusting 9 28.4
2020-Apr-07 17:10 234 6 gusting 6 28.7
2020-Apr-07 17:00 198 5 gusting 6 28.5
2020-Apr-07 16:50 154 1 gusting 6 28.4
2020-Apr-07 16:40 178 0 gusting 6 28.4
2020-Apr-07 16:20 26.9
2020-Apr-07 16:10 26.9
2020-Apr-07 16:00 26.2
2020-Apr-07 14:50 061 2 gusting 3 25.2
2020-Apr-07 14:40 24.7
2020-Apr-07 14:30 24.3
2020-Apr-07 14:20 23.9
2020-Apr-07 14:10 23.8
2020-Apr-07 14:00 23.4